Location: Molino di Ancona
(43.6167°N, 13.3667°E)
Time: 23:32:16
(UTC+00:00)

Cosmos 2263 Rocket - Pass Details

Date: 15 December 2019
Orbit: 824 x 848 km, 71.0° (Epoch: 18 January)

Event Time Altitude Azimuth Distance (km) Brightness Sun altitude
Exits shadow 03:42:40 31° 15° (NNE) 1,414 3.4 -29.8°
Drops below altitude 10° 03:45:31 10° 22° (NNE) 2,433 4.7 -29.2°
Sets 03:47:58 0° 24° (NNE) 3,370 5.6 -28.8°
